Weather History for KLAX - January, 2013

Change the Weather History Date:

Friday, January 4, 2013

  Actual Average Record
Temperature  
Mean Temperature 56 °F 56 °F  
Max Temperature 66 °F 64 °F 85 °F (2012)
Min Temperature 46 °F 49 °F 27 °F (1949)
Degree Days  
Heating Degree Days 9 9  
Month to date heating degree days 41 36  
Since 1 July heating degree days 400 478  
Cooling Degree Days 0 0  
Month to date cooling degree days 0 0  
Year to date cooling degree days 0 0  
Growing Degree Days 6 (Base 50)    
Moisture  
Dew Point 27 °F    
Average Humidity 45    
Maximum Humidity 77    
Minimum Humidity 13    
Precipitation  
Precipitation 0.00 in 0.09 in 3.50 in (1995)
Month to date precipitation 0.00 0.36  
Year to date precipitation 0.00 0.36  
Since 1 July precipitation 4.28 4.37  
Sea Level Pressure  
Sea Level Pressure 30.22 in    
Wind  
Wind Speed 5 mph (NNW)    
Max Wind Speed 12 mph    
Max Gust Speed 22 mph    
Visibility 10 miles    
Events      
T = Trace of Precipitation, MM = Missing Value Source: NWS Daily Summary

Daily Weather History Graph

Daily Weather History Graph

Search for Another Location

Airport or City:

Trip Planner

Search our weather history database for the weather conditions in past years. The results will help you decide how hot, cold, wet, or windy it might be!

Date:

Astronomy

Jan. 04, 2013 Rise Set
Actual Time 6:59 AM PST 4:58 PM PST
Civil Twilight 6:31 AM PST 5:25 PM PST
Nautical Twilight 6:00 AM PST 5:56 PM PST
Astronomical Twilight 5:30 AM PST 6:27 PM PST
Moon No Moon Rise 11:06 AM PST (1/4)
Length of Visible Light 10h 53m
Length of Day
9h 58m
Waning Gibbous, 54% of the Moon is Illuminated
Jan 4
Waning Gibbous
Jan 4
Last Quarter
Jan 11
New
Jan 18
First Quarter
Jan 26
Full

Hourly Weather History & Observations

Time (PST) Temp. Dew Point Humidity Pressure Visibility Wind Dir Wind Speed Gust Speed Precip Events Conditions
12:53 AM 55.9 °F 19.0 °F 24% 30.18 in 10.0 mi NNE 9.2 mph - N/A   Clear
1:53 AM 52.0 °F 19.0 °F 27% 30.18 in 10.0 mi ENE 5.8 mph - N/A   Clear
2:53 AM 46.9 °F 21.9 °F 37% 30.19 in 10.0 mi East 3.5 mph - N/A   Clear
3:53 AM 48.9 °F 19.0 °F 31% 30.19 in 10.0 mi East 4.6 mph - N/A   Clear
4:53 AM 48.9 °F 19.0 °F 31% 30.19 in 10.0 mi NNE 4.6 mph - N/A   Clear
5:53 AM 51.1 °F 18.0 °F 27% 30.21 in 10.0 mi Variable 3.5 mph - N/A   Clear
6:53 AM 53.1 °F 14.0 °F 21% 30.22 in 10.0 mi Variable 3.5 mph - N/A   Clear
7:53 AM 51.1 °F 18.0 °F 27% 30.25 in 10.0 mi Calm Calm - N/A   Clear
8:53 AM 55.9 °F 16.0 °F 21% 30.27 in 10.0 mi Variable 3.5 mph - N/A   Clear
9:53 AM 60.1 °F 18.0 °F 20% 30.28 in 10.0 mi NE 4.6 mph - N/A   Clear
10:53 AM 63.0 °F 16.0 °F 16% 30.26 in 10.0 mi East 8.1 mph - N/A   Clear
11:53 AM 64.9 °F 14.0 °F 14% 30.23 in 10.0 mi Variable 3.5 mph - N/A   Clear
12:53 PM 64.9 °F 14.0 °F 14% 30.20 in 10.0 mi Calm Calm - N/A   Clear
1:53 PM 64.0 °F 25.0 °F 23% 30.19 in 10.0 mi WSW 8.1 mph - N/A   Clear
2:53 PM 63.0 °F 33.1 °F 33% 30.18 in 10.0 mi WSW 9.2 mph - N/A   Clear
3:53 PM 62.1 °F 30.9 °F 31% 30.18 in 10.0 mi WSW 8.1 mph - N/A   Clear
4:53 PM 57.9 °F 43.0 °F 58% 30.19 in 10.0 mi West 8.1 mph - N/A   Clear
5:53 PM 55.9 °F 45.0 °F 67% 30.20 in 10.0 mi West 5.8 mph - N/A   Clear
6:53 PM 55.0 °F 46.0 °F 72% 30.22 in 10.0 mi WNW 5.8 mph - N/A   Clear
7:53 PM 53.1 °F 46.0 °F 77% 30.22 in 10.0 mi West 6.9 mph - N/A   Clear
8:53 PM 54.0 °F 42.1 °F 64% 30.23 in 10.0 mi NNW 4.6 mph - N/A   Clear
9:53 PM 55.0 °F 39.9 °F 57% 30.24 in 10.0 mi Calm Calm - N/A   Clear
10:53 PM 54.0 °F 37.9 °F 55% 30.25 in 10.0 mi Calm Calm - N/A   Clear
11:53 PM 51.1 °F 36.0 °F 56% 30.25 in 10.0 mi Calm Calm - N/A   Clear